Location: Chassagnes
(44.4047°N, 4.1657°E)
Time: 13:03:07
(UTC+00:00)

Meteor 2-10 Rocket - Pass Details

Date: 27 October 2020
Orbit: 733 x 885 km, 81.2° (Epoch: 23 November)

Event Time Altitude Azimuth Distance (km) Brightness Sun altitude
Rises 18:35:52 0° 194° (SSW) 3,318 6.9 -21.4°
Reaches altitude 10° 18:38:18 10° 196° (SSW) 2,367 6.2 -21.8°
Maximum altitude 18:43:37 73° 281° (WNW) 813 3.7 -22.8°
Drops below altitude 10° 18:48:46 10° 7° (N) 2,293 5.9 -23.7°
Sets 18:51:05 0° 9° (N) 3,207 6.7 -24.1°
